Regional Weather Roundup
Issued by NWS Pendleton, OR

Home | Current Version | Previous Version | Text Only | Print | Product List | Glossary On
Versions: 1 2 3 4 5 6 7 8 9 10 11 12 13 14 15 16 17 18 19 20 21 22 23 24 25 26 27 28 29 30 31 32 33 34 35 36 37 38 39 40 41 42 43 44 45 46 47 48 49 50
000
ASUS46 KPDT 230425
RWRPDT
PENDLETON REGIONAL WEATHER ROUNDUP
NATIONAL WEATHER SERVICE PENDLETON OREGON
900 PM PDT MON SEP 22 2014

NOTE: FAIR INDICATES FEW OR NO CLOUDS BELOW 12,000 FEET WITH NO
SIGNIFICANT WEATHER AND/OR OBSTRUCTIONS TO VISIBILITY.

# INDICATES UNOFFICIAL STATION AND DATA

WAZ520-230510-
EAST SLOPES OF WASHINGTON CASCADES

CITY            SKY/WX      TMP DP  RH  WIND    PRES   REMARKS
#BUMPING DAM    N/A         61  N/A N/A S2      N/A
#CLE ELUM HS    N/A         62  51  67  CALM    29.88R
#CLE ELUM 2NW   N/A         60  50  69  CALM    N/A
#CLE ELUM LAKE  N/A         61  50  67  S1      29.79R
#CLIFFDEL 2NW   N/A         65  46  50  CALM    N/A
#GLENWOOD       N/A         64  48  56  CALM    29.85R
#MANASTASH CYN  N/A         59  45  60  CALM    29.92S
#NELSON         N/A         62  54  75  CALM    29.85S
#NELSON 3SW     N/A         57  51  80  CALM    30.02R
#NILE           N/A         62  50  65  CALM    29.11S
#RONALD 2NW     N/A         62  50  65  SW1     29.83R
#SNOWDEN        N/A          0  -78  1  CALM    N/A
#TEANAWAY 4NE   N/A         62  54  75  CALM    N/A
#TROUT LAKE 1NE N/A         64  49  58  NW2     29.85R
$$

WAZ521-230510-
SIMCOE HIGHLANDS

CITY            SKY/WX      TMP DP  RH  WIND    PRES   REMARKS
#BICKLETON HS   N/A         67  29  24  W6      30.03S
#CENTERVILLE 4W N/A         67  47  49  NW9     29.69R
#CENTERVILLE 1SWN/A         63  47  56  W2      29.84R
#GOLDENDALE     N/A         70  43  38  W5      N/A
#GOLDENDALE 1NE N/A         65  38  37  S2      N/A
#GOLDENDALE 1S  N/A         63  47  56  CALM    29.91R
#GOLDENDALE 5WNWN/A         67  46  47  W3      29.84R
#GOODNOE HILLS  N/A         71  48  44  W16     29.85R
#LYLE 6NE       N/A         62  52  70  SE2     29.84R
$$

WAZ026-230510-
KITTITAS VALLEY

CITY            SKY/WX      TMP DP  RH  WIND    PRES   REMARKS
ELLENSBURG AP   MOCLDY      68  50  53  N10     29.89R
#ELLENSBURG CWU N/A         66  51  58  NW5     29.79R
#ELLENSBURG 3NE N/A         65  53  65  N6      29.89R
#ELLENSBURG     N/A         67  55  65  W1      N/A
#KITTITAS 3S    N/A         61  53  75  CALM    29.81R
#THORP 6N       N/A         62  51  67  N5      29.83S
$$

WAZ027-230510-
YAKIMA VALLEY

CITY            SKY/WX      TMP DP  RH  WIND    PRES   REMARKS
SUNNYSIDE AP    PTCLDY      59  52  78  NE3     29.86R
YAKIMA AIRPORT  CLOUDY      68  54  61  S6      29.86S
YAKIMA-VAGABOND PTCLDY      70  47  44  E9      29.87S
#COWICHE 1N     N/A         71  48  44  W1      30.05F
#DONALD 2NE     N/A         70  40  34  CALM    30.20R
#GRANDVIEW      N/A         69  44  40  CALM    29.85R
#MABTON         N/A         72  46  39  CALM    29.85R
#MOXEE 2E       N/A         68  33  27  CALM    29.81R
#NACHES 2SW     N/A         68  50  53  W2      29.88S
#OUTLOOK DOT    N/A         N/A N/A N/A W1      N/A
#SELAH 8E       N/A         61  40  46  SE6     N/A
#TERRACE HTS    N/A         70  44  39  CALM    29.78S
#TOPPENISH      N/A         69  48  47  CALM    29.75R
#WAPATO 4NE     N/A         70  40  34  CALM    30.20R
#W YAKIMA       N/A         72  51  48  NE1     29.81S
#WHITE SWAN 5E  N/A         71  47  42  SW7     29.82S
#WILEY CITY 3W  N/A         67  53  61  CALM    29.86R
$$

WAZ028-230510-
LOWER COLUMBIA BASIN...WASHINGTON

CITY            SKY/WX      TMP DP  RH  WIND    PRES   REMARKS
PASCO           CLOUDY      76  57  52  SE8     29.86R
PROSSER AWOS    N/A         70  50  49  N2      29.90R
RICHLAND AWOS   CLOUDY      77  43  30  S5      29.85R
#BASIN CITY 5SW N/A         68  54  61  CALM    29.84R
#BENTON CITY    N/A         77  39  25  W3      29.73R
#CONNELL 5N     N/A         72  50  46  SE1     29.83R
#CONNELL 5NW    N/A         70  55  59  S1      29.79R
#ELTOPIA        N/A         72  57  59  SE2     29.81
#ELTOPIA 6NW    N/A         72  55  55  S3      28.84R
#KENNEWICK 3S   N/A         76  47  36  S3      29.84R
#PASCO-BROADMOORN/A         76  51  42  S1      29.72R
#PATERSON       N/A         73  55  53  CALM    29.83R
#PROSSER        N/A         74  35  24  SE3     29.83R
#SAGEMOOR 2W    N/A         70  57  63  CALM    29.70R
#TOUCHET 2S     N/A         73  59  62  S15     29.85R
#WEST PASCO     N/A         75  53  46  CALM    29.83R
$$

WAZ029-230510-
FOOTHILLS OF THE BLUES...WASHINGTON

CITY            SKY/WX      TMP DP  RH  WIND    PRES   REMARKS
WALLA WALLA AP  THUNDER     66  60  81  S18     29.98R RAIN
#DAYTON SCHOOL  N/A         69  55  61  E7      29.91S
#LOWDEN 2SE     N/A         71  60  68  S17G26  29.85R
#PLEASANT VIEW 1N/A         72  50  46  S7      29.85R
#PRESCOTT       N/A         71  56  59  CALM    29.86R
#SUDBURY        N/A         69  N/A N/A SE10    N/A
#WHITMAN COLLEGEN/A         66  60  81  SE12    29.96R
#WAITSBURG 8N   N/A         70  40  34  S8      29.85R
#WALLA WALLA 5E N/A         68  62  81  W7      N/A
#WHITMAN MISSIONN/A         69  61  76  SE3     29.91R
$$

WAZ030-230510-
BLUE MOUNTAINS...WASHINGTON

CITY            SKY/WX      TMP DP  RH  WIND    PRES   REMARKS
$$

ORZ009-041-WAZ024-230510-
COLUMBIA RIVER GORGE

CITY            SKY/WX      TMP DP  RH  WIND    PRES   REMARKS
HOOD RIVER AP   CLOUDY      66  54  65  NW10    29.90S
THE DALLES AP   MOCLDY      72  51  48  NW3     29.88R
#ARLINGTON AIRPON/A         74  47  38  CALM    29.95S
#ARLINGTON HS   N/A         76  46  34  CALM    29.75R
#MARYHILL 2W    N/A         71  52  51  SW2     N/A
#MOSIER 1S      N/A         65  46  50  CALM    29.91R
#MURDOCK        N/A         72  55  55  NW12    29.88R
#RUFUS DOT      N/A         74  52  46  N7      N/A

$$

ORZ510-230510-
NORTH CENTRAL OREGON

CITY            SKY/WX      TMP DP  RH  WIND    PRES   REMARKS
#CHENOWITH 1W   N/A         63  50  62  NW21    N/A
#COW CYN RST AREN/A         67  44  43  N5      N/A
#DUFUR 9E       N/A         64  47  54  CALM    29.91R
#GRASS VALLEY   N/A         64  49  58  S1      N/A
#GRASS VALLEY 1SN/A         64  48  56  CALM    29.89S
#KENT DOT       N/A         66  43  43  E6      N/A
#MAUPIN SCHOOL  N/A         77  49  37  W5      28.77R
#MORO SCHOOL    N/A         67  56  68  CALM    29.94R
#SHANIKO 5WSW   N/A         65  43  45  N9      N/A
#SHANIKO 4NW    N/A         64  45  50  NE3     30.00R
#TYGH VALLEY 2NEN/A         69  48  47  CALM    29.84R
#WAPANITIA AIRPON/A         71  43  36  W3      29.85R
#WASCO AIRPORT  N/A         68  45  44  W7      N/A
#WASCO 5NE      N/A         68  48  49  CALM    29.85R
$$

ORZ511-230510-
CENTRAL OREGON

CITY            SKY/WX      TMP DP  RH  WIND    PRES   REMARKS
BEND AIRPORT    CLOUDY      66  45  47  CALM    30.01R
MADRAS AIRPORT  CLOUDY      70  45  41  E3      29.96R
REDMOND AIRPORT CLOUDY      69  42  37  N9      29.97R
#BEND 6E        N/A         66  45  47  CALM    29.78R
#BEND 1SW       N/A         67  48  50  CALM    N/A
#BEND-AWBREY    N/A         66  47  50  CALM    29.82R
#BEND-KIM LN    N/A         67  50  54  CALM    29.97R
#CROOKED RVR RANN/A         72  42  34  W17     29.81R
#CULVER         N/A         71  43  36  CALM    29.92R
#LAKE BILLY CHINN/A         73   8   8  CALM    29.99R
#POWELL BUTTE 3EN/A         65  50  58  S3      N/A
#POWELL BUTTE   N/A         65  48  54  S2      29.64R
#PRINEVILLE 3N  N/A         63  55  75  E6      29.79R
#WARM SPRINGS   N/A         76  45  33  W7      29.88R


ORZ509-230510-
EAST SLOPES OF OREGON CASCADES

CITY            SKY/WX      TMP DP  RH  WIND    PRES   REMARKS
#BLUE BOX PASS  N/A         59   6  12  N5      N/A
#CAMP SHERMAN   N/A         68  42  39  CALM    29.85S
#LA PINE DOT    N/A         62  41  46  W2      N/A
#LA PINE 4NW    N/A         61  46  58  CALM    29.88R
#LAVA BUTTE DOT N/A         62  40  44  CALM    N/A
#SISTERS AIRPOR N/A         69  52  55  N9      29.91S
#SISTERS ODOT   N/A         69  N/A N/A CALM    N/A
#SISTERS 1NW    N/A         70  42  36  N7      N/A
#SISTERS 3N     N/A         68  43  40  CALM    N/A
#SUNRIVER       N/A         62  49  62  CALM    29.73R
#SUNRIVER AP    N/A         61  48  62  CALM    29.80R
#SUTTLE LK DOT  N/A         59  44  57  W17     N/A
#TUMALO 3W      N/A         66  47  50  CALM    29.70R
#WANOGA BUTTE D N/A         57  42  57  NE1     N/A

$$

ORZ044-230510-
LOWER COLUMBIA BASIN...OREGON

CITY            SKY/WX      TMP DP  RH  WIND    PRES   REMARKS
HERMISTON       CLOUDY      76  48  37  S12     29.88R
#BOARDMAN SCHOOLN/A         78  47  34  CALM    29.85R
#BOARDMAN 3W    N/A         72  48  43  SW2     29.53S
#BOARDMAN 8SW   N/A         72  52  49  SW5     29.85R
#ECHO 8SW       N/A         75  50  41  SW7     29.86R
#IONE SCHOOL    N/A         74  49  41  SE6     29.90R
#IRRIGON 4NW    N/A         72  54  53  E2      N/A
#UMATILLA SCHOOLN/A         74  61  64  CALM    29.95
#UMATILLA       N/A         74  51  44  CALM    29.85R
$$

ORZ507-230510-
NORTHERN FOOTHILLS OF THE BLUES

CITY            SKY/WX      TMP DP  RH  WIND    PRES   REMARKS
PENDLETON AIRPT LGT RAIN    66  58  75  S8      29.97R
#ADAMS 3WNW     N/A         62  60  93  E1      29.91R
#ATHENA         N/A         63  58  84  CALM    29.94R
#HELIX SCHOOL   N/A         64  59  84  S8      29.91R
#HELIX 3N       N/A         63  58  84  S22     29.96R
#HOLDMAN 5SE    N/A         67  60  78  SE7     29.94R
#HOLDMAN 6E     N/A         65  59  81  NW10    29.70R
#M-F GROVE ELEM N/A         67  57  70  SW10    29.96R
#M-FREEWATER 5SEN/A         67  58  73  S5      29.98R
#PENDLETON DNTN N/A         64  57  78  E3      29.96R
#PDT AQUATIC CTRN/A         68  55  63  CALM    29.97R
#PDT SUNRIDGE   N/A         65  59  81  E7      29.94R
#PENDLETON 7NW  N/A         67  58  73  SE10    29.26R
#PILOT ROCK     N/A         65  56  73  E13     29.99R
#TUTUILLA       N/A         64  58  81  E2      29.92R
#UMAPINE 2E     N/A         68  60  76  S1      29.90R
#WESTON SCHOOL  N/A         65  56  73  W8      29.95R

$$

ORZ508-230510-
SOUTHERN FOOTHILLS OF THE BLUES

CITY            SKY/WX      TMP DP  RH  WIND    PRES   REMARKS
LEXINGTON       CLOUDY      68  54  61  CALM    29.95S
#AJAX           N/A         69  41  36  W1      29.90R
#CONDON SCHOOL  N/A         66  48  52  CALM    29.95R
#CONDON 5W      N/A         65  44  46  CALM    29.98R
#FOSSIL SCHOOL  N/A         64  53  67  CALM    29.96R
#HEPPNER 4NE    N/A         65  50  58  CALM    29.85F
#LEXINGTON 2SE  N/A         68  56  65  SE5     29.89S
#MIKKALO        N/A         68  44  42  SE1     29.94R
#OLEX 4N        N/A         71  46  41  SW3     29.89R
#RUGGS 5NE      N/A         64  51  63  CALM    30.17S
#RUGGS 2SW      N/A         65  51  60  S2      29.88R

$$

ORZ502-503-230510-
BLUE MOUNTAINS

CITY            SKY/WX      TMP DP  RH  WIND    PRES   REMARKS
MEACHAM         LGT RAIN    58  56  93  CALM    30.10R FOG
#BATTLE MTN DOT N/A         56  56  100 S5      N/A
#HARDMAN 10S    N/A         58  52  80  CALM    30.10F
#HEPPNER 15SE   N/A         56  51  83  CALM    29.96F
#LADD CYN SMT   N/A         60  54  81  NW7     N/A
#LADD CREEK ODOTN/A         62  58  87  S10     N/A
#N POWDER DOT   N/A         63  58  84  NW13G29 N/A
#PIKES PEAK     N/A         61  52  72  SW25G36 27.99S
#TOLLGATE       N/A         56  51  83  SW6     30.06R
#TROY SCHOOL    N/A         70  55  59  CALM    29.69R
#UKIAH          N/A         57  55  93  CALM    29.95S
#WESTON 4E      N/A         59  54  83  SE5     29.85R
$$

ORZ505-230510-
JOHN DAY BASIN

CITY            SKY/WX      TMP DP  RH  WIND    PRES   REMARKS
JOHN DAY        THUNDER     62  56  81  E6      30.05F
#JOHN DAY KJDY  N/A         64  58  81  CALM    30.19R
#MONUMENT HS    N/A         63  57  81  CALM    29.98F
#MT. VERNON 5SE N/A         58  55  90  CALM    30.01F
#WINLOCK        N/A         60  52  75  CALM    30.08R
$$

ORZ506-230510-
OCHOCO AND JOHN DAY HIGHLANDS

CITY            SKY/WX      TMP DP  RH  WIND    PRES   REMARKS
#BUCK CREEK DOT N/A         63  56  78  CALM    N/A
#HORSE RIDGE DO N/A         58  53  83  CALM    N/A
#KEYES SMT DOT  N/A         54  52  93  N6      N/A
#PAULINA SCHOOL N/A         61  53  75  N2      30.02R
#PINE MTN OBS   N/A         56  46  69  CALM    N/A
#PRAIRIE CITY   N/A         57  55  93  E7      30.01S
#SENECA 9NW     N/A         54  52  93  CALM    29.87R
$$

ORZ049-230510-
GRANDE RONDE VALLEY

CITY            SKY/WX      TMP DP  RH  WIND    PRES   REMARKS
LA GRANDE       THUNDER     64  48  56  W17     30.04R
#COVE           N/A         63  60  90  CALM    29.98R
#COVE SCHOOL    N/A         65  58  78  CALM    30.03R
#COVE 6NW       N/A         65  54  68  CALM    29.94R
#ELGIN 3N       N/A         66  53  63  NW5     29.77R
#ELGIN 1E       N/A         68  57  68  CALM    N/A
#IMBLER SCHOOL  N/A         64  54  70  W13     30.00R
#LADD CYN DOT   N/A         64  56  75  S12     N/A
#LA GRANDE ELEM N/A         64  55  73  W17     30.03R
#UNION 1S       N/A         68  57  68  NE2     29.78R
$$

ORZ050-230510-
WALLOWA COUNTY

CITY            SKY/WX      TMP DP  RH  WIND    PRES   REMARKS
JOSEPH AIRPORT  MOCLDY      61  46  58  CALM    30.04R
#ENTERPRISE AP  N/A         63  48  58  CALM    29.96R
#ENTERPRISE HS  N/A         60  52  75  CALM    30.02R
#IMNAHA SCHOOL  N/A         67  50  54  CALM    29.87R
#IMNAHA 10S     N/A         68  49  51  SW3     29.96R
#JOSEPH 3N      N/A         56  49  77  CALM    30.04R
#JOSEPH 3W      N/A         64  46  52  SW1     29.91R
#LOSTINE        N/A         62  52  70  CALM    29.67R
#MT HOWARD 8000 N/A         54  39  57  CALM    30.27R
#PROMISE 1S     N/A         67  51  56  CALM    29.95R
#SHEEP RDG 7000 N/A         58  42  55  CALM    29.83R
#WALLOWA SCHOOL N/A         61  54  78  CALM    30.77R



$$



USA.gov is the U.S. government's official web portal to all federal, state and local government web resources and services.